FW1856 Weather Reports


Display with metric or nautical units.
time (UTC)temp
F
wind
direction
speed
MPH
gust
MPH
rain 1hr
in
rain 24hr
in
rain mn
in
humidity
%
barometer
mb
20210921151122 54 9 0.0 0.0 0.00 0.00 0.00 82 1024.3
20210921150122 53 9 0.0 0.0 0.00 0.00 0.00 85 1024.2
20210921145122 52 9 0.0 0.0 0.00 0.00 0.00 86 1024.3
20210921144122 51 9 0.0 0.0 0.00 0.00 0.00 87 1024.3
20210921143123 51 9 0.0 0.0 0.00 0.00 0.00 82 1024.4
20210921112123 53 9 0.0 0.0 0.00 0.00 0.00 84 1025.7
20210921111123 53 9 0.0 0.0 0.00 0.00 0.00 84 1025.8
20210921110122 52 19 0.0 2.0 0.00 0.00 0.00 86 1025.9
20210921105122 52 36 0.0 0.0 0.00 0.00 0.00 86 1025.9
20210921104122 52 36 0.0 0.0 0.00 0.00 0.00 85 1026.0
20210921103122 53 36 0.0 0.0 0.00 0.00 0.00 85 1026.2
20210921102122 53 36 0.0 0.0 0.00 0.00 0.00 85 1026.3
20210921101122 53 36 0.0 0.0 0.00 0.00 0.00 83 1026.5
20210921100123 54 36 0.0 3.0 0.00 0.00 0.00 82 1026.4
20210921095122 54 12 0.0 0.0 0.00 0.00 0.00 83 1026.8
20210921094123 54 12 0.0 0.0 0.00 0.00 0.00 82 1026.9
20210921093122 54 12 0.0 0.0 0.00 0.00 0.00 82 1026.9
20210921092123 55 12 0.0 0.0 0.00 0.00 0.00 82 1027.0
20210921091122 55 17 0.0 0.0 0.00 0.00 0.00 82 1027.2
20210921090122 54 17 0.0 0.0 0.00 0.00 0.00 82 1027.2
20210921085122 55 10 0.0 0.0 0.00 0.00 0.00 82 1027.1
20210921084123 55 5 0.0 0.0 0.00 0.00 0.00 83 1027.3
20210921083122 55 328 0.0 0.0 0.00 0.00 0.00 83 1027.4
20210921082122 55 11 0.0 0.0 0.00 0.00 0.00 83 1027.5
20210921081122 55 30 0.0 3.0 0.00 0.00 0.00 83 1027.5
20210921080122 55 22 0.0 0.0 0.00 0.00 0.00 82 1027.6
20210921075122 56 278 0.0 0.0 0.00 0.00 0.00 82 1027.6
20210921074122 56 336 0.0 2.0 0.00 0.00 0.00 81 1027.7
20210921073123 56 42 0.0 8.0 0.00 0.00 0.00 81 1027.7
20210921072121 56 46 0.0 3.0 0.00 0.00 0.00 81 1027.8
20210921071121 56 15 0.0 5.0 0.00 0.00 0.00 80 1027.9
20210921070121 56 39 0.0 2.0 0.00 0.00 0.00 80 1027.9
20210921065121 56 34 0.0 2.0 0.00 0.00 0.00 80 1027.8
20210921064121 57 42 0.0 5.0 0.00 0.00 0.00 80 1028.0
20210921063121 57 38 0.0 2.0 0.00 0.00 0.00 80 1027.9
20210921062121 57 32 0.0 0.0 0.00 0.00 0.00 80 1027.9
20210921061122 58 32 0.0 0.0 0.00 0.00 0.00 79 1028.0
20210921060121 58 1 0.0 3.0 0.00 0.00 0.00 78 1028.2
20210921055121 58 11 0.0 3.0 0.00 0.00 0.00 77 1028.3
20210921054121 59 36 0.0 0.0 0.00 0.00 0.00 78 1028.3
20210921053122 59 15 0.0 0.0 0.00 0.00 0.00 77 1028.3
20210921052121 59 51 0.0 0.0 0.00 0.00 0.00 77 1028.4
20210921051121 59 26 0.0 0.0 0.00 0.00 0.00 77 1028.5
20210921050121 59 48 0.0 8.0 0.00 0.00 0.00 78 1028.5
20210921045121 59 355 0.0 0.0 0.00 0.00 0.00 79 1028.5
20210921044121 59 355 0.0 0.0 0.00 0.00 0.00 78 1028.6
20210921043121 60 27 0.0 0.0 0.00 0.00 0.00 78 1028.5
20210921042122 60 29 0.0 0.0 0.00 0.00 0.00 79 1028.6
20210921041121 60 34 0.0 0.0 0.00 0.00 0.00 78 1028.5
20210921040121 60 34 0.0 0.0 0.00 0.00 0.00 77 1028.6
20210921035121 60 33 0.0 0.0 0.00 0.00 0.00 77 1028.6
20210921034122 60 33 1.0 6.0 0.00 0.00 0.00 76 1028.5
20210921033122 60 34 0.0 0.0 0.00 0.00 0.00 76 1028.5
20210921032122 60 40 0.0 0.0 0.00 0.00 0.00 75 1028.5
20210921031121 60 39 0.0 5.0 0.00 0.00 0.00 74 1028.6
20210921030122 60 47 0.0 5.0 0.00 0.00 0.00 73 1028.5
20210921025121 60 30 0.0 0.0 0.00 0.00 0.00 71 1028.5
20210921024121 61 30 0.0 0.0 0.00 0.00 0.00 68 1028.4
20210921023121 61 30 0.0 0.0 0.00 0.00 0.00 65 1028.3
20210921022121 61 30 0.0 0.0 0.00 0.00 0.00 64 1028.4
20210921021121 62 30 0.0 0.0 0.00 0.00 0.00 63 1028.5
20210921020122 62 30 0.0 0.0 0.00 0.00 0.00 64 1028.4
20210921015121 62 49 0.0 0.0 0.00 0.00 0.00 63 1028.4
20210921014121 62 355 0.0 0.0 0.00 0.00 0.00 62 1028.3
20210921013121 62 338 0.0 0.0 0.00 0.00 0.00 62 1028.2
20210921012122 62 329 0.0 0.0 0.00 0.00 0.00 60 1028.3
20210921011122 62 40 0.0 0.0 0.00 0.00 0.00 65 1028.4
20210921010121 62 52 0.0 5.0 0.00 0.00 0.00 63 1028.5
20210921005122 61 272 0.0 6.0 0.00 0.00 0.00 66 1028.6
20210921004121 61 272 0.0 0.0 0.00 0.00 0.00 66 1028.7
20210921003121 61 272 0.0 3.0 0.00 0.00 0.00 67 1028.7
20210921002121 61 313 0.0 3.0 0.00 0.00 0.00 68 1028.8
20210921001122 61 333 0.0 0.0 0.00 0.00 0.00 69 1028.7
20210921000122 62 36 0.0 3.0 0.00 0.00 0.00 68 1028.7
20210920235121 61 275 0.0 5.0 0.00 0.00 0.00 70 1028.9
20210920234122 62 322 0.0 3.0 0.00 0.00 0.00 68 1028.5
20210920233121 62 2 0.0 3.0 0.00 0.00 0.00 69 1028.7
20210920232121 62 29 1.0 8.0 0.00 0.00 0.00 67 1028.7
20210920231121 63 38 0.0 5.0 0.00 0.00 0.00 67 1028.6
20210920230121 62 258 0.0 6.0 0.00 0.00 0.00 67 1028.7
20210920225121 62 296 1.0 6.0 0.00 0.00 0.00 67 1028.7
20210920224121 62 17 1.0 6.0 0.00 0.00 0.00 67 1028.8
20210920223121 62 276 1.0 5.0 0.00 0.00 0.00 66 1028.8
20210920222122 62 42 1.0 6.0 0.00 0.00 0.00 70 1028.6
20210920221122 62 1 1.0 5.0 0.00 0.00 0.00 68 1028.7
20210920220121 62 35 1.0 8.0 0.00 0.00 0.00 69 1028.8
20210920215121 62 352 1.0 11.0 0.00 0.00 0.00 69 1028.8
20210920214122 62 250 1.0 8.0 0.00 0.00 0.00 69 1028.6
20210920213122 62 294 1.0 5.0 0.00 0.00 0.00 68 1028.7
20210920212122 63 27 1.0 10.0 0.00 0.00 0.00 69 1028.7
20210920211122 61 279 1.0 6.0 0.00 0.00 0.00 69 1029.0
20210920210122 61 329 1.0 6.0 0.00 0.00 0.00 69 1028.9
20210920205121 61 7 0.0 3.0 0.00 0.00 0.00 69 1028.9
20210920204121 61 261 0.0 5.0 0.00 0.00 0.00 71 1028.9
20210920203121 61 271 2.0 3.0 0.00 0.00 0.00 71 1028.7
20210920173122 58 329 1.0 6.0 0.00 0.00 0.00 81 1028.2
20210920172121 58 277 1.0 6.0 0.00 0.00 0.00 81 1028.1
20210920171121 57 31 1.0 10.0 0.00 0.00 0.00 83 1028.1
20210920170122 56 24 1.0 8.0 0.00 0.00 0.00 84 1027.9
20210920165121 56 22 0.0 6.0 0.00 0.00 0.00 85 1028.0
20210920164122 56 20 1.0 6.0 0.00 0.00 0.00 86 1027.9
20210920163122 56 41 0.0 6.0 0.00 0.00 0.00 88 1027.9
20210920162121 55 355 0.0 0.0 0.00 0.00 0.00 88 1027.7
20210920161122 55 40 0.0 5.0 0.00 0.00 0.00 88 1027.9
20210920160121 55 287 0.0 3.0 0.00 0.00 0.00 87 1027.5
20210920155121 55 348 0.0 5.0 0.00 0.00 0.00 87 1027.6
20210920154121 55 355 0.0 0.0 0.00 0.00 0.00 87 1027.5
20210920153121 54 355 0.0 0.0 0.00 0.00 0.00 87 1027.4
20210920152122 54 355 0.0 2.0 0.00 0.00 0.00 88 1027.3